RH
29 28 27 26 31 36 38 38 41 42 39 41 36 35 33 33 30 29 36 35 41 45 41 44 44 44 42 42 48 43 43 39
22 26 26 26 33 36 38 37 41 37 35 35 31 31 28 27 25 31 38 37 39 44 40 41 43 46 49 49 46 52 49 43
24 28 32 34 35 36 35 34 33 30 26 30 33 35 30 32 33 36 35 39 40 39 44 43 44 44 49 52 55 52 48 45
24 28 33 35 38 36 31 33 35 38 36 30 31 30 31 29 32 31 34 39 39 40 42 44 47 47 46 49 51 54 53 48
25 29 35 40 42 40 36 36 34 36 41 36 42 36 36 37 38 35 36 37 38 38 41 45 49 46 49 48 43 52 53 53
30 33 35 37 42 43 41 35 37 38 41 44 42 43 38 38 40 42 40 36 35 34 40 48 51 48 49 55 58 58 53 54
33 32 32 34 41 42 40 37 35 40 43 47 51 50 46 42 40 38 33 33 32 35 38 50 53 55 56 56 59 61 60 61
34 34 33 36 40 41 39 37 35 36 40 40 42 42 42 41 40 37 42 37 37 42 49 53 52 58 59 64 70 74 82 86
35 35 37 38 41 42 42 39 37 35 36 38 40 41 39 41 42 44 43 43 44 51 55 57 57 58 62 68 73 90 90 95
34 34 37 38 40 43 46 40 36 36 38 42 45 44 49 49 48 48 43 48 45 55 60 58 62 69 66 66 77 77 80 80
36 36 39 39 39 40 44 39 38 40 42 46 45 49 49 49 49 48 50 52 56 61 68 66 71 78 80 79 78 78 73 71
39 39 40 40 39 37 36 39 41 44 45 48 52 52 51 47 45 48 53 59 65 66 75 84 88 89 84 77 73 66 62 59
37 39 39 36 36 34 39 44 44 43 43 46 50 51 50 47 50 51 55 59 72 84 91 84 68 60 64 64 55 49 47 45
36 37 37 36 34 40 41 37 36 38 39 43 47 49 50 52 57 62 67 68 69 67 61 56 51 49 45 43 41 43 44 43
40 41 38 35 40 38 32 35 41 43 46 46 48 56 60 66 64 65 62 55 54 54 57 63 65 52 44 41 41 44 44 42
45 44 36 39 35 34 36 44 46 47 47 45 53 63 76 83 86 71 65 56 53 53 54 46 44 42 33 49 45 45 43 42
50 45 41 40 37 38 44 46 49 49 47 47 56 61 60 62 61 56 47 43 40 41 42 44 45 34 67 65 62 46 43 43
46 42 43 40 41 41 45 49 47 48 48 46 46 46 46 45 40 38 42 44 42 43 43 44 46 46 62 64 66 50 50 50
43 45 42 40 37 36 43 42 47 50 48 48 43 45 42 41 42 44 44 42 44 44 45 46 47 41 62 64 69 58 56 52
Wind_Speed
6 6 6 7 6 7 7 6 5 3 3 3 4 4 4 4 4 5 6 6 7 8 9 11 10 10 10 10 12 11 10 11
5 7 6 3 5 2 1 3 5 3 2 4 4 4 4 5 5 8 8 8 8 8 8 11 11 11 13 14 13 14 12 12
12 12 12 10 9 8 7 6 5 4 2 3 3 5 5 6 4 7 8 11 11 10 11 11 12 12 14 14 15 13 13 12
12 13 13 11 12 9 8 9 9 9 6 4 3 3 4 5 9 9 11 13 13 12 12 11 12 11 11 13 14 16 14 14
11 11 13 13 13 12 11 9 9 8 8 6 7 6 7 7 7 8 11 13 13 13 13 13 13 11 13 13 12 13 14 15
10 11 12 12 10 9 8 7 7 8 7 6 5 7 7 7 7 10 12 11 13 13 12 12 12 10 11 13 13 13 12 12
11 10 9 9 8 8 7 9 8 8 8 8 8 6 8 8 10 10 10 11 11 14 13 11 9 8 7 7 6 6 8 8
9 9 9 9 9 9 7 9 10 8 7 8 7 7 9 11 12 11 16 13 12 14 13 10 7 6 5 6 5 6 7 6
6 7 8 8 7 7 9 10 10 9 9 9 9 10 8 10 12 12 12 12 11 12 7 5 5 4 2 0 3 4 4 3
7 9 8 9 8 7 9 12 13 12 11 10 10 9 10 10 13 12 11 12 9 7 6 6 5 6 4 3 3 3 2 4
9 9 9 10 10 9 10 12 12 12 11 11 9 10 11 11 11 13 12 10 6 5 6 8 10 10 10 9 7 5 4 4
8 7 7 8 8 9 8 10 13 12 12 11 10 11 11 10 10 10 8 6 7 7 9 8 7 5 5 6 6 8 8 8
7 7 8 10 10 10 11 11 12 12 12 12 12 11 11 9 9 8 7 5 5 4 4 5 7 8 8 9 8 7 8 9
8 8 10 10 10 11 12 13 14 14 14 13 12 11 9 8 7 6 5 5 7 7 8 7 9 8 8 7 8 9 10 11
9 9 10 9 9 11 13 13 12 12 12 12 12 9 8 7 5 6 8 7 8 9 9 10 10 9 9 9 10 11 12 12
8 9 8 9 10 12 11 11 11 11 12 13 11 8 7 6 8 8 10 10 10 9 10 8 8 8 6 9 12 13 13 13
6 8 8 10 11 11 11 11 10 11 11 10 7 5 5 5 6 7 9 9 10 9 10 10 11 8 7 10 12 13 14 14
8 9 8 10 11 11 11 11 10 11 9 8 7 7 8 7 7 9 10 11 10 10 10 10 11 11 7 12 15 13 13 13
10 7 9 10 11 11 11 11 9 10 9 8 7 8 8 8 9 10 11 9 10 10 10 10 11 9 7 12 16 14 13 14
Wind_Direction
188 238 251 273 278 272 258 225 213 244 281 271 270 261 269 278 282 297 298 292 289 280 281 282 280 275 272 267 267 267 256 271
58 31 16 352 17 337 156 205 44 313 303 310 298 301 303 287 296 338 324 326 312 301 290 287 281 271 273 277 269 260 259 252
70 68 65 59 55 51 63 72 61 37 14 355 330 320 322 331 305 327 325 340 327 314 301 291 287 285 278 270 266 264 262 253
51 52 51 56 55 53 64 71 70 57 34 34 358 316 301 342 342 335 343 334 325 318 307 296 287 279 275 275 270 265 265 261
49 51 53 57 60 65 66 59 51 44 21 24 8 353 335 344 327 325 319 322 316 312 306 301 294 288 284 280 274 271 271 265
57 65 68 62 50 42 36 32 28 25 13 2 357 347 325 319 321 323 311 312 313 311 308 304 292 292 294 295 291 284 278 274
78 78 67 61 51 34 20 10 15 2 359 346 4 353 314 330 340 321 321 319 316 315 318 306 303 306 310 317 324 334 319 313
61 40 26 26 18 13 360 356 350 354 350 350 338 333 331 338 337 335 329 321 316 314 322 306 317 335 351 26 35 36 33 34
27 15 7 2 351 350 343 343 335 340 337 335 339 343 343 337 338 326 314 309 309 315 301 297 302 290 260 53 44 102 102 86
1 354 352 338 335 330 333 334 331 330 329 329 322 323 325 318 316 315 312 309 310 302 292 294 333 3 334 332 303 229 216 212
341 339 345 342 338 326 334 333 323 320 317 324 317 313 316 317 316 315 317 310 304 304 348 350 21 15 357 334 336 328 294 281
321 316 323 322 323 323 329 338 336 335 333 326 309 315 316 316 315 323 331 2 18 26 21 19 1 331 309 301 305 301 296 293
324 322 319 334 335 347 343 346 341 338 330 322 318 318 321 324 336 332 337 2 31 32 7 309 280 274 267 271 288 293 286 293
325 323 332 336 349 348 339 337 335 328 323 320 321 326 316 324 333 321 330 289 270 270 263 294 320 321 310 303 301 302 300 300
319 325 331 343 343 334 332 335 334 327 326 323 324 319 327 316 294 286 281 299 309 321 322 320 306 305 307 314 317 311 305 301
314 330 323 326 333 331 332 327 329 331 323 325 333 337 307 349 4 306 319 305 318 319 302 308 304 299 321 333 321 311 304 299
317 291 313 325 328 328 330 328 328 325 328 335 346 353 294 288 308 318 334 325 322 318 313 309 305 304 53 334 320 308 302 297
312 312 331 325 330 328 328 325 326 330 324 330 332 331 329 340 334 331 330 323 318 315 310 311 310 310 29 328 319 304 301 294
305 314 316 328 326 328 325 323 327 324 318 317 315 330 325 326 326 329 323 319 314 313 315 316 313 313 352 324 320 298 301 297